Wind_Speed
17 19 20 19 20 22 23 23 24 23 24 24 26 27 27 28 28 28 29 29 30 31 32 34 35 35 36 37 37 37 37 37 37 37 36 36 36 36 35 35 34 33 32 32
15 18 19 20 21 21 22 22 22 23 23 24 25 27 27 27 27 27 28 29 30 30 30 31 33 34 35 35 36 36 37 36 36 36 36 36 35 35 35 34 34 33 33 33
15 16 18 20 21 22 22 22 22 23 23 25 26 27 27 28 27 27 28 29 29 29 30 30 31 32 33 34 35 36 36 36 36 35 36 36 35 35 34 34 34 34 34 34
17 17 18 18 20 22 23 23 24 24 24 25 26 27 27 28 28 28 28 28 29 29 30 30 30 31 32 33 34 34 34 35 35 35 35 35 35 35 35 34 35 34 34 34
18 18 18 19 20 21 23 23 24 24 25 25 26 27 28 29 30 30 30 30 30 30 30 30 31 31 31 32 33 33 33 34 34 34 35 35 35 35 35 35 35 34 34 33
19 19 19 19 20 21 22 24 24 25 25 26 26 27 28 29 30 31 31 31 31 31 31 31 31 31 31 31 32 33 33 33 33 34 34 34 34 34 35 34 34 34 33 33
19 19 20 20 20 21 22 23 24 25 26 26 26 27 28 29 29 30 31 31 31 31 32 32 32 32 31 31 31 32 32 32 32 33 33 33 33 33 33 33 33 32 32 32
19 20 20 20 20 22 22 22 23 24 25 26 26 26 27 28 29 29 30 30 30 30 31 31 31 32 32 32 31 31 31 32 33 33 33 32 32 32 32 32 31 31 31 31
20 20 21 21 21 21 22 23 24 24 25 26 26 26 26 27 28 28 29 30 30 30 30 31 31 31 31 31 31 31 32 32 33 33 33 32 32 32 32 31 31 31 30 30
19 20 21 21 22 22 23 23 23 24 24 25 26 26 26 26 28 28 28 29 30 30 31 31 31 31 31 31 31 31 31 32 33 33 33 33 32 31 31 30 30 29 28 28
19 19 20 20 21 22 22 23 23 24 24 25 25 25 25 26 27 28 28 29 30 30 30 31 31 31 31 31 32 31 31 31 32 32 33 33 32 31 30 30 29 28 28 28
19 19 20 20 21 22 23 23 24 24 24 24 25 25 25 25 26 27 28 28 29 29 30 30 30 30 31 31 32 32 32 31 31 32 32 32 31 31 30 29 28 28 27 27
20 20 20 20 21 21 22 23 23 24 24 24 25 25 25 25 25 25 26 27 27 28 29 29 30 30 30 31 31 31 31 31 31 31 31 31 31 31 30 29 28 27 26 26
22 22 22 22 22 22 22 23 23 24 24 24 25 25 25 25 25 25 25 26 27 27 27 28 28 29 29 29 29 29 30 30 30 30 30 30 30 30 29 29 28 27 26 26
23 23 23 23 23 23 23 23 24 24 25 25 25 25 26 26 26 26 26 26 26 26 26 27 27 27 27 28 28 28 28 29 29 29 29 29 29 29 28 28 28 28 27 26
23 23 24 24 24 24 23 24 24 24 25 26 26 26 26 26 26 26 26 26 25 25 25 25 26 26 26 26 26 27 27 27 28 28 29 29 28 28 27 27 27 27 27 27
21 22 23 24 24 24 24 25 25 25 25 26 26 26 27 26 26 26 25 25 25 24 25 25 25 25 25 25 25 25 26 26 26 26 26 27 27 26 26 26 26 26 26 27
21 22 22 23 23 23 24 24 25 25 26 26 27 27 27 27 26 26 26 26 25 24 24 24 24 24 24 24 24 24 25 25 25 25 26 26 26 25 25 25 25 25 26 26
20 21 22 22 22 23 23 23 24 24 24 25 26 27 27 27 27 27 26 26 25 25 24 24 24 24 24 23 23 24 24 25 25 26 26 26 26 26 25 25 25 26 26 26
21 21 21 21 22 22 23 23 23 24 24 25 26 26 26 26 26 26 27 26 25 25 25 25 24 23 23 24 23 23 23 24 24 25 26 26 26 26 26 26 26 26 26 26
21 21 21 21 21 21 22 21 22 22 23 23 25 25 25 25 25 25 25 26 26 26 25 24 24 23 23 23 23 23 23 23 23 24 24 25 26 26 26 26 26 25 25 25
21 22 21 21 21 21 21 21 21 21 21 22 23 23 23 23 24 24 24 25 25 25 25 24 24 23 23 22 22 22 22 22 22 22 22 23 24 25 25 25 25 24 24 24
22 22 22 21 21 21 21 20 20 20 20 20 21 22 22 22 23 24 24 25 25 25 25 25 24 24 23 23 22 22 21 21 21 21 21 22 22 23 24 24 23 23 23 23
22 21 22 22 21 20 20 19 19 20 20 20 20 21 22 22 22 23 24 24 25 25 25 25 25 25 24 23 23 22 21 21 20 20 20 21 21 22 22 22 22 22 22 22
21 21 21 21 21 20 20 19 19 19 19 19 20 21 22 22 22 22 22 23 24 25 25 25 24 24 24 24 23 23 22 21 21 21 20 20 21 21 21 21 21 21 21 21
20 20 20 20 20 20 20 20 19 19 19 19 20 21 21 22 22 22 22 22 23 24 24 24 24 24 24 24 23 23 22 22 22 21 21 21 21 21 20 20 20 20 21 21
19 19 19 19 19 19 20 20 19 19 19 19 20 20 21 22 22 22 21 22 22 22 23 23 23 24 24 23 23 23 22 22 21 21 22 21 21 20 20 21 21 21 21 21
Wind_Direction
241 240 241 238 236 234 236 238 240 240 239 237 238 237 236 236 237 237 237 238 239 238 238 239 239 239 240 241 242 242 243 245 246 248 250 253 255 257 259 261 263 265 267 269
241 240 242 241 239 237 237 239 240 240 240 239 240 238 237 237 237 238 238 238 239 240 239 239 240 240 240 242 242 243 244 246 247 249 250 253 255 257 259 261 263 265 267 269
244 241 241 242 241 240 240 241 243 243 242 242 242 241 239 238 238 238 238 239 240 241 240 240 241 240 241 242 243 244 244 245 247 250 251 253 254 257 259 260 263 265 267 268
248 245 246 245 243 242 242 241 242 242 241 241 242 242 240 238 238 237 238 240 240 242 242 242 243 242 242 242 243 244 244 246 248 249 251 253 255 256 258 261 263 264 266 267
251 250 250 250 248 246 244 243 243 243 243 242 242 242 241 239 238 239 240 241 242 243 244 245 245 244 244 244 244 244 245 247 248 250 251 253 255 257 259 261 262 262 264 266
254 253 253 254 252 250 248 247 246 246 246 246 244 243 242 242 241 241 241 242 243 244 245 246 246 246 246 246 246 245 246 247 249 251 252 253 254 256 259 260 261 262 262 264
257 256 257 255 254 252 251 250 249 249 249 248 247 245 242 242 241 241 241 242 243 245 246 247 247 247 247 248 248 247 246 247 249 251 252 253 254 255 257 258 260 261 262 264
258 257 257 256 255 253 253 252 252 252 251 250 248 246 243 242 242 242 242 243 244 244 245 246 247 248 247 248 249 249 248 248 249 250 252 253 254 255 256 257 258 259 261 263
262 260 259 257 255 255 254 254 253 252 252 251 250 249 247 244 244 244 244 244 244 245 245 246 247 248 248 249 250 250 251 250 249 250 251 253 254 255 255 256 257 259 261 262
266 262 261 260 257 256 256 255 254 252 251 251 251 250 248 246 245 245 245 245 245 246 246 248 249 250 249 249 250 251 251 251 250 250 251 252 253 254 255 256 257 258 259 261
267 265 264 262 259 258 257 255 253 251 251 250 250 249 249 248 247 246 246 246 246 247 248 249 250 250 250 250 250 251 251 251 251 250 251 252 252 252 253 254 255 257 259 260
268 266 265 264 263 260 258 256 253 252 251 250 250 249 249 250 249 248 248 247 247 247 248 249 251 251 251 252 251 251 251 252 252 252 251 250 250 249 250 252 255 257 259 260
268 266 265 265 265 263 261 258 255 252 250 249 249 250 250 250 250 250 250 248 247 247 248 250 251 253 253 253 251 250 250 250 251 251 249 249 248 248 249 251 253 256 258 259
268 266 264 264 264 263 261 258 256 253 251 250 250 249 249 249 249 250 250 249 248 248 249 249 250 252 253 252 251 249 249 249 249 249 248 247 247 247 248 250 252 254 256 257
267 266 264 264 264 263 261 259 258 255 252 251 251 250 249 249 249 249 250 250 250 249 249 249 250 251 252 251 250 248 247 248 247 247 246 246 246 247 248 249 251 253 254 256
268 266 264 264 264 263 261 259 258 257 254 253 251 250 249 249 249 249 250 250 251 250 249 249 250 250 251 251 249 247 247 247 247 246 246 246 245 246 247 249 251 252 254 255
271 269 267 266 265 263 262 260 259 257 255 253 252 250 250 250 250 249 249 249 250 249 248 248 249 249 250 249 247 247 246 245 245 246 246 245 245 246 248 250 252 253 254 254
274 272 271 268 266 265 264 262 261 258 256 253 252 252 250 249 249 249 249 248 248 248 248 247 247 248 247 247 248 247 245 244 245 246 246 245 244 246 247 249 252 253 255 255
279 277 273 270 267 266 265 263 262 259 257 254 252 252 251 250 250 248 247 246 246 246 246 246 247 246 245 246 248 249 247 246 246 246 245 245 245 245 247 249 252 253 255 256
282 280 278 274 270 268 265 264 262 259 257 255 253 252 251 250 249 248 246 245 245 244 245 246 245 245 246 247 248 249 249 249 247 246 245 245 246 246 247 249 251 253 254 254
282 280 279 277 274 271 267 265 262 259 257 255 253 252 251 250 248 247 245 243 243 243 245 245 244 244 246 246 246 247 248 248 247 245 245 245 246 247 248 250 251 253 253 253
284 280 278 278 276 274 270 266 262 258 257 256 254 252 250 247 246 244 243 242 241 241 243 243 244 244 244 244 245 245 246 246 245 246 246 246 247 247 248 250 252 252 252 252
285 281 277 276 276 275 272 267 262 259 257 256 254 251 248 246 244 242 241 241 241 241 243 243 244 244 243 243 244 244 244 244 245 247 247 248 249 249 250 250 251 252 251 250
285 281 277 275 275 273 271 268 265 261 258 256 254 252 248 246 244 243 242 241 241 241 242 243 243 242 241 242 243 243 244 245 247 248 249 250 250 250 250 249 251 252 251 250
287 283 279 276 274 272 270 268 265 262 260 258 255 252 249 246 244 242 242 241 242 242 242 243 243 241 239 240 240 242 243 245 247 249 250 251 251 250 248 248 249 249 250 250
288 285 281 278 274 271 269 267 264 261 261 259 257 253 250 247 244 242 242 242 242 242 242 241 239 238 237 237 238 239 242 244 247 249 249 250 250 249 247 246 247 249 250 250
288 286 283 279 275 272 269 266 263 262 261 259 257 254 250 246 243 242 242 241 241 239 238 238 237 236 235 235 235 237 240 243 246 248 248 249 249 248 248 248 249 251 252 252
Height
5583 5584 5586 5588 5590 5592 5595 5597 5600 5602 5604 5607 5608 5611 5614 5616 5619 5622 5624 5627 5630 5632 5635 5638 5641 5644 5647 5650 5653 5656 5659 5662 5664 5666 5668 5669 5671 5672 5673 5673 5674 5674 5674 5673
5579 5580 5581 5583 5585 5587 5590 5592 5594 5596 5598 5600 5602 5604 5607 5609 5612 5615 5617 5620 5622 5625 5627 5630 5633 5635 5638 5641 5644 5647 5649 5652 5654 5656 5658 5660 5661 5663 5664 5664 5665 5665 5665 5665
5575 5576 5577 5579 5581 5582 5584 5586 5588 5590 5593 5593 5595 5597 5600 5602 5605 5608 5610 5613 5615 5617 5620 5622 5624 5627 5630 5632 5635 5637 5640 5642 5645 5647 5649 5651 5652 5653 5654 5655 5656 5656 5656 5656
5570 5572 5573 5577 5576 5577 5578 5580 5582 5583 5585 5587 5589 5591 5593 5596 5598 5601 5603 5606 5608 5610 5612 5614 5616 5619 5621 5623 5626 5628 5631 5633 5635 5637 5639 5641 5642 5644 5645 5646 5646 5647 5647 5647
5565 5566 5568 5570 5570 5571 5573 5574 5575 5577 5579 5580 5582 5584 5586 5588 5591 5593 5596 5598 5600 5602 5604 5606 5608 5610 5613 5615 5617 5619 5622 5624 5626 5628 5630 5631 5633 5634 5635 5636 5637 5637 5637 5638
5559 5560 5562 5565 5565 5565 5567 5568 5570 5571 5572 5573 5575 5578 5580 5581 5583 5585 5588 5590 5592 5594 5596 5598 5600 5602 5604 5606 5608 5611 5613 5615 5617 5619 5620 5622 5623 5624 5625 5626 5627 5628 5628 5628
5553 5554 5556 5557 5558 5559 5562 5563 5563 5564 5565 5567 5568 5570 5572 5573 5575 5577 5580 5582 5584 5586 5588 5590 5592 5594 5596 5598 5599 5601 5603 5605 5607 5609 5611 5612 5614 5615 5616 5617 5618 5618 5619 5620
5548 5549 5552 5551 5551 5553 5554 5555 5555 5556 5558 5559 5561 5562 5564 5566 5567 5570 5572 5574 5576 5578 5580 5581 5583 5585 5587 5589 5590 5592 5594 5596 5598 5600 5602 5603 5604 5605 5607 5607 5608 5609 5610 5610
5544 5545 5544 5544 5544 5545 5546 5547 5548 5549 5550 5552 5553 5555 5556 5558 5559 5561 5564 5566 5568 5570 5571 5573 5574 5576 5578 5580 5581 5583 5585 5587 5589 5590 5592 5594 5595 5596 5597 5599 5600 5600 5601 5602
5537 5538 5537 5537 5537 5538 5539 5540 5541 5542 5543 5544 5546 5547 5548 5550 5551 5553 5555 5557 5559 5561 5563 5564 5566 5567 5569 5571 5572 5574 5576 5577 5579 5581 5583 5585 5586 5587 5589 5590 5591 5592 5592 5593
5531 5531 5531 5531 5531 5531 5532 5533 5533 5534 5535 5537 5538 5539 5541 5542 5543 5545 5547 5548 5550 5552 5554 5555 5556 5558 5559 5561 5563 5565 5567 5568 5570 5572 5573 5575 5577 5578 5580 5582 5583 5584 5584 5585
5525 5525 5525 5525 5524 5524 5524 5525 5526 5527 5528 5529 5530 5532 5533 5534 5535 5537 5538 5540 5541 5543 5545 5546 5547 5549 5550 5552 5553 5555 5557 5559 5561 5562 5564 5566 5568 5570 5571 5573 5574 5575 5576 5577
5518 5518 5517 5517 5517 5517 5517 5517 5518 5519 5520 5521 5523 5524 5525 5526 5528 5529 5530 5532 5533 5534 5536 5537 5538 5540 5541 5542 5544 5546 5548 5550 5551 5553 5555 5557 5559 5561 5563 5565 5566 5567 5568 5569
5510 5510 5510 5510 5510 5510 5510 5510 5510 5511 5512 5513 5515 5516 5517 5518 5520 5521 5522 5524 5525 5526 5527 5528 5529 5531 5532 5533 5534 5536 5538 5540 5542 5544 5546 5548 5550 5552 5554 5556 5558 5559 5560 5561
5503 5502 5502 5502 5502 5502 5502 5502 5503 5503 5504 5505 5506 5508 5509 5510 5512 5513 5514 5515 5517 5518 5519 5520 5521 5522 5523 5524 5525 5527 5529 5531 5533 5535 5537 5539 5541 5543 5545 5547 5549 5551 5552 5553
5495 5494 5494 5494 5494 5494 5494 5494 5495 5495 5496 5497 5498 5499 5500 5502 5503 5504 5506 5507 5508 5509 5511 5512 5513 5513 5514 5516 5517 5519 5520 5522 5524 5526 5528 5530 5533 5535 5537 5539 5541 5542 5544 5545
5487 5486 5486 5486 5486 5485 5485 5486 5486 5486 5487 5488 5489 5490 5492 5493 5494 5496 5497 5498 5500 5501 5502 5503 5504 5505 5507 5508 5509 5511 5512 5514 5516 5518 5520 5522 5525 5527 5529 5531 5533 5534 5535 5536
5479 5478 5478 5478 5477 5477 5477 5477 5477 5478 5478 5479 5480 5481 5483 5484 5486 5487 5488 5490 5491 5493 5494 5495 5497 5498 5499 5501 5502 5503 5505 5507 5509 5511 5513 5515 5517 5519 5521 5523 5525 5526 5527 5528
5471 5471 5470 5469 5469 5469 5469 5469 5469 5469 5470 5470 5471 5473 5474 5475 5477 5478 5480 5482 5483 5485 5486 5487 5489 5490 5492 5493 5495 5496 5498 5499 5501 5503 5505 5507 5509 5512 5513 5515 5517 5518 5519 5520
5463 5463 5462 5462 5461 5461 5461 5461 5461 5461 5461 5462 5463 5464 5465 5467 5468 5470 5471 5473 5475 5477 5479 5480 5482 5483 5485 5486 5488 5489 5490 5492 5493 5495 5497 5499 5501 5503 5505 5507 5508 5509 5510 5511
5456 5455 5454 5454 5453 5453 5452 5452 5452 5452 5452 5453 5454 5455 5456 5458 5459 5461 5463 5465 5467 5469 5471 5472 5474 5476 5477 5479 5480 5482 5483 5484 5486 5487 5489 5491 5493 5495 5497 5498 5500 5501 5502 5503
5448 5447 5446 5446 5445 5444 5444 5444 5444 5444 5444 5445 5445 5447 5448 5449 5451 5453 5455 5457 5459 5461 5463 5465 5467 5468 5470 5471 5473 5475 5476 5477 5479 5480 5482 5483 5485 5486 5488 5490 5491 5492 5493 5494
5440 5439 5438 5438 5437 5437 5436 5436 5436 5436 5436 5437 5438 5439 5440 5441 5443 5445 5447 5449 5451 5453 5455 5457 5459 5461 5463 5464 5466 5468 5469 5471 5472 5474 5475 5476 5477 5478 5480 5482 5483 5484 5485 5486
5432 5431 5430 5430 5429 5429 5429 5428 5428 5428 5429 5429 5430 5431 5432 5434 5435 5437 5439 5441 5443 5445 5447 5449 5451 5453 5455 5457 5459 5461 5463 5464 5466 5467 5468 5469 5470 5471 5473 5474 5475 5477 5478 5479
5424 5423 5422 5422 5421 5421 5421 5421 5421 5421 5421 5422 5422 5423 5424 5426 5428 5429 5431 5433 5435 5437 5439 5441 5443 5445 5448 5450 5452 5454 5456 5458 5459 5461 5462 5463 5463 5464 5466 5467 5468 5470 5471 5472
5416 5415 5414 5414 5413 5413 5413 5413 5413 5413 5414 5414 5415 5416 5417 5418 5420 5422 5424 5425 5427 5429 5431 5433 5435 5438 5440 5443 5445 5447 5449 5451 5453 5454 5455 5456 5457 5458 5459 5461 5462 5463 5464 5465
5409 5408 5407 5406 5406 5406 5406 5405 5406 5406 5406 5407 5407 5408 5409 5411 5412 5414 5416 5418 5420 5422 5424 5426 5428 5430 5433 5435 5438 5440 5442 5444 5446 5447 5449 5450 5451 5452 5453 5454 5455 5456 5457 5458